Regional Weather Roundup
Issued by NWS

Home | Current Version | Previous Version | Text Only | Print | Product List | Glossary Off
Versions: 1 2 3 4 5 6 7 8 9 10 11 12 13 14 15 16 17 18 19 20 21 22 23 24 25 26 27 28 29 30 31 32 33 34 35 36 37 38 39 40 41 42 43 44 45 46 47 48 49 50

000
ASUS45 KABQ 051610
RWRNM
NEW MEXICO REGIONAL WEATHER ROUNDUP
NATIONAL WEATHER SERVICE ALBUQUERQUE NM
1000 AM MDT SUN JUL 05 2015

NOTE: "FAIR" MEANS FEW OR NO CLOUDS BELOW 12,000 FEET AGL WITH NO
       SIGNIFICANT WEATHER OR OBSTRUCTIONS TO VISION.

      THIS PRODUCT IS RELEASED AS TWO VERSIONS.  ONE VERSION NEAR
      THE TOP OF THE HOUR CONTAINING PRELIMINARY DATA FROM ALBUQUERQUE
      AND OTHER STATIONS.  A FINAL VERSION WITH ADDITIONAL DATA IS
      ISSUED ABOUT 10 MINUTES AFTER THE HOUR.

NMZ501-503-504-510>518-051700-
NORTHWEST PLATEAU/NORTHCENTRAL MOUNTAINS

CITY           SKY/WX    TMP DP  RH WIND       PRES   REMARKS
FARMINGTON     PTSUNNY   70  58  65 VRB3      30.17S
LOS ALAMOS     PTSUNNY   69  53  56 E3        30.27S
SANTA FE       MOSUNNY   72  55  55 S7        30.20S
TAOS           SUNNY     72  46  40 CALM      30.25F
ANGEL FIRE     FAIR      66  53  64 SW5       30.33S

$$
NMZ402-403-502-505>509-051700-
WESTCENTRAL MOUNTAINS/SOUTHWEST MOUNTAINS

CITY           SKY/WX    TMP DP  RH WIND       PRES   REMARKS
GALLUP         PTSUNNY   70  55  59 SW5       30.26R
GRANTS         PTSUNNY   71  55  58 CALM      30.26S
SILVER CITY    LGT RAIN  68  63  83 W9        30.22R

$$
NMZ407-409-411-412-051700-
SOUTHERN DESERTS

CITY           SKY/WX    TMP DP  RH WIND       PRES   REMARKS
LORDSBURG      CLOUDY    75  61  60 W6        30.14S
DEMING         CLOUDY    74  65  73 SW8       30.13S
LAS CRUCES     PTSUNNY   77  64  62 SW8       30.14S
HOLLOMAN AFB   SUNNY     82  59  45 S8        30.07S
ALAMOGORDO     SUNNY     81  59  47 S9        30.10S
T OR C         PTSUNNY   78  60  53 NW3       30.13S

$$
NMZ519>523-051700-
CENTRAL VALLEYS/CENTRAL HIGHLANDS

CITY           SKY/WX    TMP DP  RH WIND       PRES   REMARKS
ALBUQUERQUE    PTSUNNY   76  56  49 S5        30.16S
DOUBLE EAGLE   PTSUNNY   75  57  53 S7        30.20S
MORIARTY ARPT    N/A     75  53  46 CALM      30.21F
CLINES CORNERS MOSUNNY   73  53  49 W10       30.24F
BELEN          FAIR      79  54  42 SW3       30.15S
SOCORRO        FAIR      78  58  50 SE3       30.13S

$$
NMZ524>526-539-540-051700-
SOUTHCENTRAL MOUNTAINS

CITY           SKY/WX    TMP DP  RH WIND       PRES   REMARKS
RUIDOSO        SUNNY     73  54  49 CALM      30.27F

$$
NMZ527>531-051700-
NORTHEAST HIGHLANDS/NORTHEAST PLAINS

CITY           SKY/WX    TMP DP  RH WIND       PRES   REMARKS
LAS VEGAS      SUNNY     74  56  53 S8        30.21S
RATON          SUNNY     72  57  59 S7        30.14S
CLAYTON        SUNNY     83  59  44 SW25G31   30.06S

$$
NMZ532>537-051700-
EASTCENTRAL PLAINS

CITY           SKY/WX    TMP DP  RH WIND       PRES   REMARKS
TUCUMCARI      SUNNY     86  62  44 SW17      30.03S
CANNON AFB     SUNNY     81  64  56 S10       30.08F
CLOVIS AIRPORT SUNNY     81  63  54 S15         N/A

$$
NMZ028-029-538-051700-
SOUTHEAST PLAINS

CITY           SKY/WX    TMP DP  RH WIND       PRES   REMARKS
ROSWELL        MOSUNNY   83  64  52 S12       30.04F
ARTESIA        SUNNY     81  66  61 SE12      30.05F
CARLSBAD       MOSUNNY   83  65  54 SE8G17    30.03F
HOBBS          MOSUNNY   81  66  61 SE12      30.08F


$$


USA.gov is the U.S. government's official web portal to all federal, state and local government web resources and services.